This demonstration page uses our WeatherBlox Daily Observations layout. Learn more.

Left ArrowRight Arrow

Hourly Observations for January 30, 2017

Temp ( °F °C ) Dew Point ( °F °C ) Humidity (%) Winds ( mph kmh ) Pressure ( in mb ) Visibility ( mi km ) Precip ( " mm )
12:53 am 00:53 Clear 33 0.6 26 -3.3 75 75 WSW 8 13 30.06 1018 10 16 0.00 0.00
1:53 am 01:53 Clear 33 0.6 26 -3.3 75 75 WSW 9 15 30.04 1017 10 16 0.00 0.00
2:53 am 02:53 Clear 35 1.7 27 -2.8 72 72 W 12 19 30.01 1016 10 16 0.00 0.00
3:53 am 03:53 Clear 33 0.6 27 -2.8 78 78 WSW 9 15 30.01 1016 10 16 0.00 0.00
4:53 am 04:53 Clear 34 1.1 27 -2.8 76 76 W 14 22 29.99 1016 10 16 0.00 0.00
5:53 am 05:53 Clear 37 2.8 26 -3.3 65 65 W 14 22 29.96 1015 10 16 0.00 0.00
6:53 am 06:53 Clear 33 0.6 25 -3.9 72 72 W 13 20 29.98 1015 10 16 0.00 0.00
7:53 am 07:53 Sunny 34 1.1 26 -3.3 73 73 W 15 24 29.98 1015 10 16 0.00 0.00
8:53 am 08:53 Sunny 38 3.3 27 -2.8 65 65 W 16 26 29.96 1015 10 16 0.00 0.00
9:53 am 09:53 Sunny 43 6.1 28 -2.2 56 56 W 15 24 29.97 1015 10 16 0.00 0.00
10:53 am 10:53 Sunny 51 10.6 28 -2.2 41 41 WNW 23 37 29.96 1015 10 16 0.00 0.00
11:53 am 11:53 Sunny 57 13.9 27 -2.8 32 32 NW 18 30 29.96 1014 10 16 0.00 0.00
12:53 pm 12:53 Sunny 59 15 28 -2.2 31 31 NW 17 28 29.96 1014 10 16 0.00 0.00
1:53 pm 13:53 Sunny 61 16.1 26 -3.3 26 26 NW 18 30 29.94 1014 10 16 0.00 0.00
2:53 pm 14:53 Sunny 59 15 23 -5 25 25 NNW 21 33 29.93 1014 10 16 0.00 0.00
3:53 pm 15:53 Sunny 57 13.9 24 -4.4 28 28 NW 15 24 29.96 1014 10 16 0.00 0.00
4:53 pm 16:53 Sunny 52 11.1 24 -4.4 34 34 N 15 24 29.97 1015 10 16 0.00 0.00
5:53 pm 17:53 Clear 43 6.1 26 -3.3 51 51 N 8 13 29.97 1015 10 16 0.00 0.00
6:53 pm 18:53 Clear 38 3.3 24 -4.4 57 57 Calm 29.99 1016 10 16 0.00 0.00
7:53 pm 19:53 Clear 34 1.1 23 -5 64 64 WNW 3 6 30.00 1016 10 16 0.00 0.00
8:53 pm 20:53 Clear 31 -0.6 23 -5 72 72 NW 8 13 29.99 1016 10 16 0.00 0.00
9:53 pm 21:53 Clear 37 2.8 23 -5 57 57 NW 10 17 29.99 1016 10 16 0.00 0.00
10:53 pm 22:53 Clear 34 1.1 24 -4.4 67 67 NW 9 15 29.98 1015 10 16 0.00 0.00
11:53 pm 23:53 Clear 35 1.7 25 -3.9 67 67 NW 9 15 29.98 1015 10 16 0.00 0.00

Powered by AerisWeather